Theta_e
332 333 335 337 336 336 336 337 338 337 337 336 336 335 334 334 333 332 332 331 331 331 330 328 327 327 326 324 324 321 311 313
328 328 331 331 331 334 335 335 336 336 336 335 334 334 334 333 332 331 330 330 331 330 329 328 327 326 325 322 319 317 309 309
326 326 330 331 329 332 334 335 335 333 333 333 329 326 326 325 328 329 329 329 330 329 327 324 321 322 323 320 313 305 305 307
326 326 327 330 330 328 327 329 327 326 326 325 324 323 320 325 327 329 327 327 328 325 323 321 313 307 308 310 303 302 302 307
327 324 329 328 325 325 323 323 322 323 323 323 324 323 320 321 320 317 316 318 311 312 310 309 306 305 304 303 301 299 298 302
327 327 328 325 324 324 322 321 321 321 322 323 323 321 316 315 314 315 311 310 309 308 307 306 304 303 302 301 299 298 297 298
327 328 326 323 322 322 321 321 322 325 325 326 324 321 317 316 314 311 308 308 307 305 304 303 302 300 300 299 298 298 298 297
326 326 323 321 321 321 322 325 326 323 322 322 323 320 316 312 309 308 308 308 306 305 302 300 299 298 298 298 297 297 297 296
325 326 320 320 321 323 325 325 325 322 321 321 318 315 312 309 308 307 308 306 304 302 300 299 298 297 295 296 296 296 296 296
325 327 321 323 323 321 322 323 322 320 317 317 315 313 311 308 307 307 307 305 303 301 299 297 296 295 294 294 294 295 295 294
322 323 322 322 320 320 320 319 318 316 313 313 313 312 310 308 308 308 306 304 302 301 298 296 294 294 294 293 293 293 293 295
323 323 320 319 319 317 316 316 315 313 311 311 311 310 310 308 307 305 304 302 300 299 297 296 295 294 296 295 292 292 291 291
322 319 318 319 317 315 313 312 311 311 311 311 311 310 310 307 305 304 302 300 299 298 296 295 294 293 291 291 291 291 290 290
319 320 318 319 318 315 315 313 312 311 310 310 309 310 309 307 303 302 300 299 298 297 296 294 294 293 290 288 287 289 290 290
320 319 319 319 317 315 312 310 309 308 307 306 308 308 307 305 303 301 299 298 296 295 295 294 292 292 293 292 286 284 285 288
321 320 319 318 318 315 312 309 308 309 307 306 306 307 306 304 302 301 299 298 297 297 297 294 293 292 291 293 290 289 285 283
320 320 319 319 319 317 313 310 309 307 306 305 305 304 304 303 301 300 299 298 295 295 295 293 294 292 291 289 288 287 286 285
319 319 319 319 318 318 314 311 307 306 304 303 302 300 299 299 299 297 296 295 294 293 293 292 291 291 291 289 289 288 286 284
319 319 319 321 320 319 314 312 309 308 305 304 300 297 295 296 296 295 296 296 295 293 293 292 291 291 290 290 290 289 290 288
320 320 320 322 321 318 313 310 309 308 307 305 301 299 297 296 297 297 297 296 295 294 294 292 292 290 289 290 289 290 290 289
Wind_Speed
13 12 13 10 9 13 12 12 12 12 14 14 14 14 14 14 13 13 14 12 13 13 14 15 16 16 15 14 11 13 7 4
14 7 6 6 3 11 11 11 10 9 11 12 12 11 11 11 11 12 12 12 14 14 13 14 15 16 14 13 12 11 6 5
9 5 6 4 5 7 8 9 9 10 9 11 7 4 5 6 8 11 11 12 13 13 13 14 14 15 15 14 11 4 5 4
4 5 4 4 3 5 2 4 3 4 4 6 4 5 4 4 7 10 11 11 14 14 14 14 12 6 5 9 4 5 5 4
10 10 6 6 3 2 1 2 3 3 5 5 4 4 4 3 3 3 3 8 4 6 7 6 8 6 5 5 5 6 4 3
11 9 6 5 3 3 4 3 3 2 3 5 4 3 4 4 3 4 4 3 6 4 5 5 7 6 6 6 6 5 3 3
10 9 6 4 5 3 2 3 3 4 4 5 4 4 4 3 4 4 4 4 4 5 5 5 6 5 6 6 7 6 6 3
10 10 8 6 6 6 4 3 4 4 3 4 5 4 5 5 4 4 4 4 3 5 4 4 5 5 6 6 6 5 6 6
9 9 7 7 7 5 4 4 4 4 3 5 6 6 6 7 5 4 4 4 6 5 4 5 5 4 5 5 5 6 5 6
8 8 9 8 7 5 4 4 3 3 3 3 6 6 6 5 5 4 4 4 4 4 4 4 4 4 3 4 4 4 5 6
7 8 9 8 7 5 5 5 4 3 4 4 6 5 6 6 5 4 5 5 4 3 4 2 3 3 2 2 3 3 4 3
8 7 7 7 6 4 4 3 3 3 4 4 6 5 6 5 5 5 5 5 4 3 3 3 3 2 1 2 2 2 2 3
10 10 9 9 6 5 3 4 3 1 2 5 6 5 6 6 4 5 5 5 5 4 3 3 1 1 2 3 2 1 2 1
9 12 11 9 7 3 3 4 2 2 3 4 5 6 6 6 6 5 5 5 6 3 3 2 1 2 3 2 3 4 2 2
15 14 15 11 7 4 3 3 3 2 2 3 4 6 6 6 6 6 5 4 4 3 2 3 2 0 2 3 1 4 2 3
16 14 15 10 10 7 6 5 4 4 4 3 4 6 6 6 6 5 6 4 5 3 2 2 2 1 1 2 1 3 4 3
10 9 10 11 11 8 5 4 3 3 3 6 4 3 4 6 6 6 6 4 4 4 5 4 1 1 2 1 2 0 2 4
9 12 13 11 11 10 10 8 7 4 5 5 4 4 4 6 7 6 6 5 4 4 4 3 0 2 1 2 3 3 3 3
11 12 13 12 13 12 11 10 9 7 7 6 8 5 4 6 6 4 3 6 4 3 2 2 1 1 2 2 2 3 3 3
13 13 12 13 11 10 7 7 6 5 6 7 6 6 6 7 7 9 5 3 4 3 2 4 3 1 2 3 3 3 3 3
Wind_Direction
82 101 110 97 117 122 119 119 120 139 136 129 122 117 111 114 111 108 102 101 93 90 92 85 78 75 75 70 78 68 57 43
82 95 93 93 137 103 116 125 150 145 133 121 116 116 122 117 117 105 103 98 88 83 83 78 69 66 64 69 61 61 56 37
123 164 125 144 140 124 135 152 155 143 128 123 98 99 109 116 124 112 98 86 83 82 78 73 67 60 58 54 57 47 44 36
45 39 46 344 66 86 112 157 124 115 114 105 96 100 106 89 96 82 80 85 88 78 76 75 63 57 50 50 51 43 34 19
165 204 162 171 158 144 158 137 138 123 127 126 137 112 93 95 76 85 76 88 71 69 71 67 68 56 41 38 48 44 27 18
181 200 188 169 157 167 176 164 131 138 157 151 136 115 117 116 105 101 94 75 87 82 74 73 67 62 54 54 44 41 30 20
195 179 190 172 158 159 181 154 138 177 178 185 152 158 130 132 129 117 106 105 104 85 80 80 72 62 55 49 36 19 16 14
188 184 176 154 184 170 176 151 161 165 145 153 159 138 140 128 124 115 109 113 104 96 101 94 74 69 56 44 41 23 27 20
190 183 157 163 183 166 149 168 157 144 137 129 129 130 136 145 120 119 124 106 101 95 88 72 71 66 58 37 40 23 16 20
188 172 168 168 159 150 157 145 149 128 139 142 129 125 130 107 110 119 129 114 114 105 95 75 78 72 54 12 38 22 28 31
180 159 163 157 144 145 138 142 138 151 150 139 121 129 126 125 136 145 134 115 112 115 66 116 91 84 115 18 44 35 23 36
172 160 143 142 131 119 93 115 140 151 141 135 135 153 149 136 128 134 127 120 112 99 128 66 124 146 105 12 18 66 319 58
170 151 158 153 148 150 145 164 138 138 170 157 156 164 140 131 133 141 142 135 156 146 102 98 72 124 84 343 355 70 278 5
171 169 168 173 163 138 143 138 166 156 164 162 168 162 149 152 153 147 143 125 106 103 121 121 140 171 128 91 23 330 307 268
180 180 179 177 153 127 82 89 69 94 152 183 184 167 166 162 149 144 141 99 133 145 155 152 155 276 200 140 104 238 353 326
188 184 179 174 163 173 163 170 163 200 184 161 160 168 164 152 134 119 110 120 112 105 103 58 62 247 358 234 273 147 198 311
186 181 184 178 177 182 177 175 174 138 137 151 140 108 97 95 108 111 88 81 89 122 96 85 139 158 210 231 246 196 227 203
178 181 189 189 182 181 188 194 174 157 148 141 115 88 81 87 93 100 110 97 97 78 65 56 74 233 235 211 205 198 217 209
186 190 198 201 195 187 189 201 180 185 162 149 139 132 125 127 117 101 116 97 80 82 96 73 250 179 212 230 206 226 198 215
190 195 203 202 199 194 186 176 177 162 156 150 145 141 136 143 109 122 152 88 87 132 110 191 158 159 225 229 244 241 216 198